| time (UTC) | temp F | wind direction | speed MPH | gust MPH | rain 1hr in | rain 24hr in | rain mn in | humidity % | barometer mb |
| 20260506002533 | 82 | 40 | 3.0 | 10.0 | 0.00 | 0.00 | 0.00 | 23 | 1010.4 |
| 20260506002040 | 82 | 288 | 2.0 | 7.0 | 0.00 | 0.00 | 0.00 | 25 | 1010.7 |
| 20260506001626 | 82 | 30 | 1.0 | 5.0 | 0.00 | 0.00 | 0.00 | 24 | 1010.6 |
| 20260506001042 | 82 | 338 | 0.0 | 7.0 | 0.00 | 0.00 | 0.00 | 25 | 1010.8 |
| 20260506000551 | 82 | 310 | 2.0 | 9.0 | 0.00 | 0.00 | 0.00 | 23 | 1010.8 |
| 20260506000057 | 83 | 284 | 4.0 | 9.0 | 0.00 | 0.00 | 0.00 | 21 | 1010.9 |
| 20260505235544 | 84 | 5 | 3.0 | 6.0 | 0.00 | 0.00 | 0.00 | 22 | 1011.0 |
| 20260505235032 | 84 | 259 | 2.0 | 8.0 | 0.00 | 0.00 | 0.00 | 22 | 1011.0 |
| 20260505234608 | 85 | 333 | 3.0 | 8.0 | 0.00 | 0.00 | 0.00 | 21 | 1011.0 |
| 20260505234040 | 85 | 26 | 1.0 | 6.0 | 0.00 | 0.00 | 0.00 | 22 | 1011.0 |
| 20260505233532 | 85 | 327 | 3.0 | 6.0 | 0.00 | 0.00 | 0.00 | 22 | 1010.9 |
| 20260505233124 | 85 | 303 | 1.0 | 5.0 | 0.00 | 0.00 | 0.00 | 21 | 1011.1 |
| 20260505232519 | 85 | 269 | 1.0 | 6.0 | 0.00 | 0.00 | 0.00 | 21 | 1011.1 |
| 20260505232036 | 85 | 297 | 3.0 | 8.0 | 0.00 | 0.00 | 0.00 | 22 | 1011.2 |
| 20260505231616 | 85 | 309 | 1.0 | 6.0 | 0.00 | 0.00 | 0.00 | 22 | 1011.1 |
| 20260505231033 | 85 | 285 | 1.0 | 6.0 | 0.00 | 0.00 | 0.00 | 22 | 1011.1 |
| 20260505230518 | 84 | 336 | 2.0 | 9.0 | 0.00 | 0.00 | 0.00 | 24 | 1011.2 |
| 20260505230137 | 84 | 78 | 1.0 | 9.0 | 0.00 | 0.00 | 0.00 | 21 | 1011.2 |
| 20260505225533 | 84 | 201 | 1.0 | 7.0 | 0.00 | 0.00 | 0.00 | 24 | 1011.4 |
| 20260505225035 | 83 | 252 | 3.0 | 7.0 | 0.00 | 0.00 | 0.00 | 23 | 1011.1 |
| 20260505224629 | 83 | 360 | 1.0 | 4.0 | 0.00 | 0.00 | 0.00 | 22 | 1011.2 |
| 20260505224040 | 82 | 58 | 2.0 | 6.0 | 0.00 | 0.00 | 0.00 | 22 | 1011.2 |
| 20260505223544 | 81 | 205 | 3.0 | 7.0 | 0.00 | 0.00 | 0.00 | 24 | 1011.3 |
| 20260505223131 | 81 | 224 | 1.0 | 3.0 | 0.00 | 0.00 | 0.00 | 25 | 1011.4 |
| 20260505222524 | 81 | 90 | 1.0 | 3.0 | 0.00 | 0.00 | 0.00 | 24 | 1011.4 |
| 20260505222036 | 81 | 306 | 0.0 | 3.0 | 0.00 | 0.00 | 0.00 | 24 | 1011.4 |
| 20260505221630 | 82 | 351 | 1.0 | 4.0 | 0.00 | 0.00 | 0.00 | 23 | 1011.7 |
| 20260505221029 | 83 | 334 | 1.0 | 5.0 | 0.00 | 0.00 | 0.00 | 23 | 1011.6 |
| 20260505220518 | 83 | 229 | 2.0 | 5.0 | 0.00 | 0.00 | 0.00 | 23 | 1011.6 |
| 20260505220110 | 84 | 333 | 1.0 | 4.0 | 0.00 | 0.00 | 0.00 | 22 | 1011.8 |
| 20260505215523 | 84 | 333 | 2.0 | 5.0 | 0.00 | 0.00 | 0.00 | 22 | 1011.8 |
| 20260505215033 | 84 | 28 | 1.0 | 5.0 | 0.00 | 0.00 | 0.00 | 23 | 1011.8 |
| 20260505214624 | 83 | 237 | 2.0 | 7.0 | 0.00 | 0.00 | 0.00 | 22 | 1011.9 |
| 20260505214041 | 83 | 288 | 2.0 | 7.0 | 0.00 | 0.00 | 0.00 | 21 | 1012.0 |
| 20260505213547 | 83 | 146 | 2.0 | 6.0 | 0.00 | 0.00 | 0.00 | 23 | 1012.0 |
| 20260505213136 | 83 | 282 | 2.0 | 6.0 | 0.00 | 0.00 | 0.00 | 23 | 1012.1 |
| 20260505212542 | 83 | 330 | 2.0 | 6.0 | 0.00 | 0.00 | 0.00 | 22 | 1012.0 |
| 20260505212019 | 83 | 233 | 3.0 | 6.0 | 0.00 | 0.00 | 0.00 | 21 | 1012.2 |
| 20260505211554 | 82 | 282 | 2.0 | 4.0 | 0.00 | 0.00 | 0.00 | 24 | 1012.1 |
| 20260505211042 | 81 | 252 | 0.0 | 6.0 | 0.00 | 0.00 | 0.00 | 25 | 1012.0 |
| 20260505210523 | 82 | 136 | 2.0 | 6.0 | 0.00 | 0.00 | 0.00 | 21 | 1012.2 |
| 20260505210118 | 82 | 62 | 1.0 | 8.0 | 0.00 | 0.00 | 0.00 | 22 | 1012.3 |
| 20260505205552 | 82 | 123 | 3.0 | 8.0 | 0.00 | 0.00 | 0.00 | 21 | 1012.4 |
| 20260505205025 | 82 | 313 | 3.0 | 7.0 | 0.00 | 0.00 | 0.00 | 20 | 1012.5 |
| 20260505204604 | 83 | 188 | 3.0 | 7.0 | 0.00 | 0.00 | 0.00 | 20 | 1012.5 |
| 20260505204030 | 83 | 234 | 2.0 | 7.0 | 0.00 | 0.00 | 0.00 | 23 | 1012.7 |
| 20260505203527 | 83 | 233 | 1.0 | 7.0 | 0.00 | 0.00 | 0.00 | 21 | 1012.5 |
| 20260505203111 | 82 | 323 | 1.0 | 7.0 | 0.00 | 0.00 | 0.00 | 23 | 1012.3 |
| 20260505202531 | 81 | 192 | 3.0 | 7.0 | 0.00 | 0.00 | 0.00 | 23 | 1012.5 |
| 20260505202046 | 82 | 171 | 2.0 | 8.0 | 0.00 | 0.00 | 0.00 | 21 | 1012.6 |
| 20260505201612 | 82 | 295 | 2.0 | 5.0 | 0.00 | 0.00 | 0.00 | 22 | 1012.6 |
| 20260505201041 | 82 | 284 | 3.0 | 5.0 | 0.00 | 0.00 | 0.00 | 22 | 1012.6 |
| 20260505200807 | 82 | 360 | 1.0 | 5.0 | 0.00 | 0.00 | 0.00 | 20 | 1012.6 |
| 20260505200127 | 81 | 151 | 1.0 | 5.0 | 0.00 | 0.00 | 0.00 | 22 | 1012.8 |
| 20260505195537 | 81 | 162 | 1.0 | 9.0 | 0.00 | 0.00 | 0.00 | 23 | 1012.9 |
| 20260505195024 | 81 | 290 | 3.0 | 9.0 | 0.00 | 0.00 | 0.00 | 20 | 1012.9 |
| 20260505194711 | 81 | 241 | 1.0 | 8.0 | 0.00 | 0.00 | 0.00 | 23 | 1012.9 |
| 20260505194032 | 81 | 244 | 1.0 | 8.0 | 0.00 | 0.00 | 0.00 | 20 | 1013.0 |
| 20260505193525 | 81 | 28 | 1.0 | 6.0 | 0.00 | 0.00 | 0.00 | 23 | 1013.0 |
| 20260505193209 | 81 | 202 | 2.0 | 8.0 | 0.00 | 0.00 | 0.00 | 23 | 1012.9 |
| 20260505192536 | 81 | 5 | 2.0 | 5.0 | 0.00 | 0.00 | 0.00 | 23 | 1013.0 |
| 20260505192031 | 81 | 219 | 2.0 | 5.0 | 0.00 | 0.00 | 0.00 | 23 | 1013.0 |
| 20260505191629 | 80 | 27 | 1.0 | 8.0 | 0.00 | 0.00 | 0.00 | 23 | 1013.0 |
| 20260505191033 | 80 | 50 | 2.0 | 8.0 | 0.00 | 0.00 | 0.00 | 24 | 1012.9 |
| 20260505190525 | 80 | 269 | 1.0 | 7.0 | 0.00 | 0.00 | 0.00 | 24 | 1013.0 |
| 20260505190226 | 79 | 98 | 0.0 | 4.0 | 0.00 | 0.00 | 0.00 | 23 | 1012.9 |
| 20260505185541 | 79 | 339 | 2.0 | 6.0 | 0.00 | 0.00 | 0.00 | 28 | 1012.9 |
| 20260505185045 | 79 | 72 | 2.0 | 6.0 | 0.00 | 0.00 | 0.00 | 29 | 1013.0 |
| 20260505184610 | 78 | 44 | 1.0 | 4.0 | 0.00 | 0.00 | 0.00 | 26 | 1013.0 |
| 20260505184025 | 78 | 72 | 2.0 | 4.0 | 0.00 | 0.00 | 0.00 | 29 | 1013.3 |
| 20260505183544 | 78 | 311 | 1.0 | 4.0 | 0.00 | 0.00 | 0.00 | 33 | 1013.0 |
| 20260505183137 | 77 | 305 | 1.0 | 4.0 | 0.00 | 0.00 | 0.00 | 34 | 1013.2 |
| 20260505182524 | 77 | 30 | 1.0 | 4.0 | 0.00 | 0.00 | 0.00 | 35 | 1013.1 |
| 20260505182033 | 76 | 27 | 1.0 | 4.0 | 0.00 | 0.00 | 0.00 | 33 | 1013.1 |
| 20260505181631 | 76 | 14 | 1.0 | 4.0 | 0.00 | 0.00 | 0.00 | 35 | 1013.0 |
| 20260505181044 | 76 | 36 | 0.0 | 4.0 | 0.00 | 0.00 | 0.00 | 35 | 1013.1 |
| 20260505180531 | 75 | 15 | 1.0 | 5.0 | 0.00 | 0.00 | 0.00 | 36 | 1013.1 |
| 20260505180141 | 75 | 66 | 1.0 | 5.0 | 0.00 | 0.00 | 0.00 | 38 | 1013.1 |
| 20260505175541 | 75 | 57 | 1.0 | 5.0 | 0.00 | 0.00 | 0.00 | 35 | 1013.1 |
| 20260505175045 | 75 | 44 | 1.0 | 5.0 | 0.00 | 0.00 | 0.00 | 36 | 1013.1 |
| 20260505174606 | 74 | 51 | 1.0 | 4.0 | 0.00 | 0.00 | 0.00 | 38 | 1013.3 |
| 20260505174042 | 73 | 72 | 1.0 | 4.0 | 0.00 | 0.00 | 0.00 | 38 | 1013.2 |
| 20260505173540 | 73 | 21 | 1.0 | 4.0 | 0.00 | 0.00 | 0.00 | 41 | 1013.3 |
| 20260505173159 | 73 | 59 | 2.0 | 4.0 | 0.00 | 0.00 | 0.00 | 39 | 1013.3 |
| 20260505172545 | 72 | 32 | 0.0 | 4.0 | 0.00 | 0.00 | 0.00 | 40 | 1013.3 |
| 20260505172025 | 72 | 102 | 0.0 | 4.0 | 0.00 | 0.00 | 0.00 | 42 | 1013.4 |
| 20260505171629 | 72 | 40 | 1.0 | 3.0 | 0.00 | 0.00 | 0.00 | 42 | 1013.4 |
| 20260505171048 | 72 | 62 | 0.0 | 3.0 | 0.00 | 0.00 | 0.00 | 42 | 1013.5 |
| 20260505170545 | 72 | 44 | 1.0 | 3.0 | 0.00 | 0.00 | 0.00 | 40 | 1013.5 |
| 20260505170200 | 72 | 56 | 1.0 | 3.0 | 0.00 | 0.00 | 0.00 | 42 | 1013.4 |
| 20260505165533 | 71 | 80 | 1.0 | 3.0 | 0.00 | 0.00 | 0.00 | 40 | 1013.4 |
| 20260505165037 | 71 | 40 | 1.0 | 3.0 | 0.00 | 0.00 | 0.00 | 40 | 1013.5 |
| 20260505164726 | 70 | 90 | 1.0 | 3.0 | 0.00 | 0.00 | 0.00 | 42 | 1013.4 |
| 20260505164030 | 70 | 13 | 1.0 | 3.0 | 0.00 | 0.00 | 0.00 | 40 | 1013.4 |
| 20260505163541 | 69 | 148 | 1.0 | 3.0 | 0.00 | 0.00 | 0.00 | 43 | 1013.6 |
| 20260505163144 | 69 | 34 | 1.0 | 3.0 | 0.00 | 0.00 | 0.00 | 44 | 1013.6 |
| 20260505162547 | 68 | 50 | 0.0 | 3.0 | 0.00 | 0.00 | 0.00 | 41 | 1013.4 |
| 20260505162037 | 68 | 183 | 1.0 | 3.0 | 0.00 | 0.00 | 0.00 | 41 | 1013.5 |
| 20260505161653 | 68 | 65 | 0.0 | 2.0 | 0.00 | 0.00 | 0.00 | 44 | 1013.5 |
| 20260505161037 | 67 | 182 | 0.0 | 3.0 | 0.00 | 0.00 | 0.00 | 43 | 1013.6 |
| 20260505160547 | 67 | 171 | 0.0 | 4.0 | 0.00 | 0.00 | 0.00 | 43 | 1013.6 |
| 20260505160115 | 66 | 18 | 0.0 | 3.0 | 0.00 | 0.00 | 0.00 | 45 | 1013.5 |
| 20260505153202 | 61 | 39 | 0.0 | 2.0 | 0.00 | 0.00 | 0.00 | 49 | 1013.4 |
| 20260505152534 | 60 | 119 | 0.0 | 2.0 | 0.00 | 0.00 | 0.00 | 51 | 1013.5 |
| 20260505152032 | 60 | 113 | 0.0 | 2.0 | 0.00 | 0.00 | 0.00 | 52 | 1013.5 |
| 20260505151637 | 60 | 39 | 0.0 | 2.0 | 0.00 | 0.00 | 0.00 | 52 | 1013.4 |
| 20260505151048 | 59 | 352 | 0.0 | 2.0 | 0.00 | 0.00 | 0.00 | 52 | 1013.4 |
| 20260505150529 | 59 | 40 | 0.0 | 2.0 | 0.00 | 0.00 | 0.00 | 53 | 1013.5 |
| 20260505150116 | 58 | 352 | 0.0 | 2.0 | 0.00 | 0.00 | 0.00 | 53 | 1013.7 |
| 20260505140531 | 54 | 241 | 0.0 | 3.0 | 0.00 | 0.00 | 0.00 | 65 | 1013.4 |
| 20260505140206 | 53 | 240 | 1.0 | 3.0 | 0.00 | 0.00 | 0.00 | 65 | 1013.5 |
| 20260505125023 | 50 | 233 | 2.0 | 4.0 | 0.00 | 0.00 | 0.00 | 67 | 1013.1 |
| 20260505124636 | 50 | 227 | 2.0 | 4.0 | 0.00 | 0.00 | 0.00 | 68 | 1013.1 |
| 20260505124025 | 50 | 237 | 2.0 | 4.0 | 0.00 | 0.00 | 0.00 | 67 | 1013.0 |
| 20260505123525 | 50 | 228 | 3.0 | 5.0 | 0.00 | 0.00 | 0.00 | 67 | 1013.0 |
| 20260505123136 | 51 | 230 | 2.0 | 5.0 | 0.00 | 0.00 | 0.00 | 67 | 1013.0 |
| 20260505122531 | 51 | 234 | 3.0 | 5.0 | 0.00 | 0.00 | 0.00 | 66 | 1012.9 |
| 20260505122248 | 51 | 229 | 2.0 | 5.0 | 0.00 | 0.00 | 0.00 | 66 | 1012.8 |
| 20260505121641 | 51 | 234 | 3.0 | 5.0 | 0.00 | 0.00 | 0.00 | 66 | 1012.8 |
| 20260505121025 | 51 | 227 | 3.0 | 4.0 | 0.00 | 0.00 | 0.00 | 65 | 1012.8 |
| 20260505120537 | 51 | 229 | 3.0 | 4.0 | 0.00 | 0.00 | 0.00 | 65 | 1012.6 |
| 20260505120109 | 51 | 231 | 3.0 | 4.0 | 0.00 | 0.00 | 0.00 | 66 | 1012.8 |
| 20260505115529 | 51 | 236 | 2.0 | 5.0 | 0.00 | 0.00 | 0.00 | 66 | 1012.6 |
| 20260505115019 | 51 | 240 | 2.0 | 5.0 | 0.00 | 0.00 | 0.00 | 66 | 1012.6 |
| 20260505114630 | 51 | 240 | 2.0 | 4.0 | 0.00 | 0.00 | 0.00 | 66 | 1012.7 |
| 20260505114032 | 51 | 227 | 3.0 | 4.0 | 0.00 | 0.00 | 0.00 | 66 | 1012.6 |
| 20260505113532 | 51 | 241 | 2.0 | 5.0 | 0.00 | 0.00 | 0.00 | 67 | 1012.5 |
| 20260505113111 | 51 | 238 | 3.0 | 5.0 | 0.00 | 0.00 | 0.00 | 66 | 1012.5 |
| 20260505112539 | 51 | 229 | 3.0 | 5.0 | 0.00 | 0.00 | 0.00 | 66 | 1012.6 |
| 20260505112019 | 51 | 238 | 3.0 | 5.0 | 0.00 | 0.00 | 0.00 | 66 | 1012.5 |
| 20260505111628 | 51 | 229 | 3.0 | 5.0 | 0.00 | 0.00 | 0.00 | 65 | 1012.6 |
| 20260505111019 | 52 | 234 | 2.0 | 4.0 | 0.00 | 0.00 | 0.00 | 65 | 1012.5 |
| 20260505110543 | 52 | 227 | 3.0 | 5.0 | 0.00 | 0.00 | 0.00 | 65 | 1012.6 |
| 20260505110158 | 52 | 223 | 2.0 | 5.0 | 0.00 | 0.00 | 0.00 | 64 | 1012.5 |
| 20260505102041 | 52 | 231 | 3.0 | 5.0 | 0.00 | 0.00 | 0.00 | 63 | 1012.4 |
| 20260505101645 | 52 | 237 | 2.0 | 4.0 | 0.00 | 0.00 | 0.00 | 63 | 1012.3 |
| 20260505101038 | 52 | 232 | 3.0 | 4.0 | 0.00 | 0.00 | 0.00 | 64 | 1012.4 |
| 20260505100537 | 52 | 234 | 2.0 | 4.0 | 0.00 | 0.00 | 0.00 | 63 | 1012.4 |
| 20260505100125 | 52 | 235 | 2.0 | 4.0 | 0.00 | 0.00 | 0.00 | 63 | 1012.3 |
| 20260505095517 | 53 | 230 | 2.0 | 4.0 | 0.00 | 0.00 | 0.00 | 63 | 1012.3 |
| 20260505095046 | 53 | 235 | 3.0 | 4.0 | 0.00 | 0.00 | 0.00 | 62 | 1012.4 |
| 20260505094632 | 52 | 242 | 3.0 | 4.0 | 0.00 | 0.00 | 0.00 | 63 | 1012.3 |
| 20260505094018 | 52 | 234 | 2.0 | 4.0 | 0.00 | 0.00 | 0.00 | 63 | 1012.3 |
| 20260505093531 | 53 | 229 | 2.0 | 4.0 | 0.00 | 0.00 | 0.00 | 63 | 1012.4 |
| 20260505093145 | 53 | 239 | 2.0 | 5.0 | 0.00 | 0.00 | 0.00 | 62 | 1012.3 |
| 20260505092606 | 53 | 223 | 3.0 | 5.0 | 0.00 | 0.00 | 0.00 | 61 | 1012.3 |
| 20260505092056 | 53 | 246 | 2.0 | 5.0 | 0.00 | 0.00 | 0.00 | 61 | 1012.3 |
| 20260505091635 | 53 | 232 | 3.0 | 5.0 | 0.00 | 0.00 | 0.00 | 61 | 1012.2 |
| 20260505091051 | 54 | 233 | 3.0 | 5.0 | 0.00 | 0.00 | 0.00 | 60 | 1012.2 |
| 20260505090618 | 53 | 215 | 2.0 | 4.0 | 0.00 | 0.00 | 0.00 | 61 | 1012.2 |
| 20260505090109 | 54 | 231 | 3.0 | 5.0 | 0.00 | 0.00 | 0.00 | 61 | 1012.1 |
| 20260505085520 | 54 | 233 | 2.0 | 5.0 | 0.00 | 0.00 | 0.00 | 60 | 1012.2 |
| 20260505085110 | 53 | 219 | 3.0 | 5.0 | 0.00 | 0.00 | 0.00 | 60 | 1012.1 |
| 20260505084619 | 53 | 234 | 3.0 | 5.0 | 0.00 | 0.00 | 0.00 | 62 | 1012.1 |
| 20260505084112 | 53 | 228 | 2.0 | 4.0 | 0.00 | 0.00 | 0.00 | 61 | 1012.0 |
| 20260505083603 | 54 | 240 | 2.0 | 5.0 | 0.00 | 0.00 | 0.00 | 60 | 1012.0 |
| 20260505083147 | 54 | 221 | 3.0 | 8.0 | 0.00 | 0.00 | 0.00 | 60 | 1012.0 |
| 20260505082600 | 54 | 223 | 4.0 | 8.0 | 0.00 | 0.00 | 0.00 | 60 | 1012.0 |
| 20260505082107 | 54 | 232 | 3.0 | 5.0 | 0.00 | 0.00 | 0.00 | 60 | 1012.0 |
| 20260505081646 | 54 | 229 | 3.0 | 5.0 | 0.00 | 0.00 | 0.00 | 60 | 1011.9 |
| 20260505081107 | 54 | 236 | 3.0 | 5.0 | 0.00 | 0.00 | 0.00 | 59 | 1012.0 |
| 20260505080548 | 54 | 227 | 3.0 | 4.0 | 0.00 | 0.00 | 0.00 | 59 | 1011.8 |
| 20260505080136 | 55 | 250 | 2.0 | 4.0 | 0.00 | 0.00 | 0.00 | 59 | 1011.9 |
| 20260505075559 | 55 | 249 | 3.0 | 4.0 | 0.00 | 0.00 | 0.00 | 59 | 1011.8 |
| 20260505075110 | 54 | 235 | 3.0 | 5.0 | 0.00 | 0.00 | 0.00 | 59 | 1011.8 |
| 20260505074624 | 55 | 235 | 3.0 | 5.0 | 0.00 | 0.00 | 0.00 | 59 | 1011.9 |
| 20260505074051 | 55 | 236 | 3.0 | 4.0 | 0.00 | 0.00 | 0.00 | 59 | 1011.8 |
| 20260505073558 | 55 | 227 | 3.0 | 4.0 | 0.00 | 0.00 | 0.00 | 58 | 1011.8 |
| 20260505073119 | 55 | 227 | 3.0 | 5.0 | 0.00 | 0.00 | 0.00 | 58 | 1011.9 |
| 20260505072548 | 55 | 243 | 3.0 | 5.0 | 0.00 | 0.00 | 0.00 | 58 | 1011.7 |
| 20260505072040 | 55 | 228 | 3.0 | 5.0 | 0.00 | 0.00 | 0.00 | 57 | 1011.7 |
| 20260505071626 | 55 | 233 | 3.0 | 5.0 | 0.00 | 0.00 | 0.00 | 59 | 1011.6 |
| 20260505071103 | 55 | 246 | 3.0 | 5.0 | 0.00 | 0.00 | 0.00 | 58 | 1011.5 |
| 20260505070521 | 55 | 252 | 3.0 | 5.0 | 0.00 | 0.00 | 0.00 | 58 | 1011.5 |
| 20260505070201 | 56 | 230 | 3.0 | 5.0 | 0.00 | 0.00 | 0.00 | 56 | 1011.5 |
| 20260505065526 | 56 | 232 | 2.0 | 4.0 | 0.00 | 0.00 | 0.00 | 56 | 1011.4 |
| 20260505065029 | 56 | 240 | 3.0 | 5.0 | 0.00 | 0.00 | 0.00 | 57 | 1011.3 |
| 20260505064621 | 56 | 236 | 3.0 | 5.0 | 0.00 | 0.00 | 0.00 | 57 | 1011.3 |
| 20260505064029 | 56 | 227 | 3.0 | 4.0 | 0.00 | 0.00 | 0.00 | 56 | 1011.2 |
| 20260505063541 | 56 | 229 | 3.0 | 4.0 | 0.00 | 0.00 | 0.00 | 56 | 1011.2 |
| 20260505063140 | 56 | 240 | 2.0 | 4.0 | 0.00 | 0.00 | 0.00 | 56 | 1011.1 |
| 20260505062521 | 56 | 240 | 3.0 | 4.0 | 0.00 | 0.00 | 0.00 | 55 | 1011.2 |
| 20260505062030 | 57 | 237 | 2.0 | 4.0 | 0.00 | 0.00 | 0.00 | 55 | 1011.1 |
| 20260505061640 | 57 | 235 | 2.0 | 5.0 | 0.00 | 0.00 | 0.00 | 55 | 1011.0 |
| 20260505061016 | 57 | 228 | 3.0 | 7.0 | 0.00 | 0.00 | 0.00 | 54 | 1011.0 |
| 20260505060524 | 57 | 239 | 2.0 | 5.0 | 0.00 | 0.00 | 0.00 | 53 | 1010.8 |
| 20260505060156 | 58 | 225 | 3.0 | 5.0 | 0.00 | 0.00 | 0.00 | 53 | 1010.7 |
| 20260505055517 | 58 | 223 | 3.0 | 5.0 | 0.00 | 0.00 | 0.00 | 52 | 1010.8 |
| 20260505055033 | 58 | 232 | 3.0 | 6.0 | 0.00 | 0.00 | 0.00 | 53 | 1010.7 |
| 20260505054652 | 58 | 218 | 3.0 | 5.0 | 0.00 | 0.00 | 0.00 | 51 | 1010.7 |
| 20260505054037 | 58 | 227 | 3.0 | 5.0 | 0.00 | 0.00 | 0.00 | 52 | 1010.8 |
| 20260505053537 | 59 | 251 | 3.0 | 7.0 | 0.00 | 0.00 | 0.00 | 51 | 1010.8 |
| 20260505053141 | 59 | 247 | 3.0 | 5.0 | 0.00 | 0.00 | 0.00 | 51 | 1010.9 |
| 20260505052517 | 59 | 240 | 3.0 | 5.0 | 0.00 | 0.00 | 0.00 | 49 | 1010.8 |
| 20260505052019 | 59 | 227 | 3.0 | 5.0 | 0.00 | 0.00 | 0.00 | 50 | 1010.8 |
| 20260505051615 | 59 | 240 | 3.0 | 5.0 | 0.00 | 0.00 | 0.00 | 49 | 1010.7 |
| 20260505051021 | 60 | 232 | 3.0 | 5.0 | 0.00 | 0.00 | 0.00 | 49 | 1010.7 |
| 20260505050537 | 60 | 223 | 3.0 | 5.0 | 0.00 | 0.00 | 0.00 | 49 | 1010.7 |
| 20260505050158 | 60 | 216 | 3.0 | 5.0 | 0.00 | 0.00 | 0.00 | 48 | 1010.6 |
| 20260505041638 | 62 | 239 | 3.0 | 5.0 | 0.00 | 0.00 | 0.00 | 44 | 1010.1 |
| 20260505041020 | 62 | 226 | 4.0 | 5.0 | 0.00 | 0.00 | 0.00 | 44 | 1010.0 |
| 20260505040538 | 63 | 226 | 2.0 | 4.0 | 0.00 | 0.00 | 0.00 | 44 | 1009.9 |
| 20260505040222 | 63 | 230 | 2.0 | 4.0 | 0.00 | 0.00 | 0.00 | 43 | 1009.8 |
| 20260505035530 | 63 | 235 | 2.0 | 5.0 | 0.00 | 0.00 | 0.00 | 45 | 1009.7 |
| 20260505035041 | 64 | 241 | 3.0 | 5.0 | 0.00 | 0.00 | 0.00 | 44 | 1009.8 |
| 20260505034642 | 64 | 252 | 2.0 | 4.0 | 0.00 | 0.00 | 0.00 | 42 | 1009.6 |
| 20260505034033 | 64 | 225 | 2.0 | 5.0 | 0.00 | 0.00 | 0.00 | 43 | 1009.4 |
| 20260505033533 | 64 | 217 | 3.0 | 5.0 | 0.00 | 0.00 | 0.00 | 43 | 1009.3 |
| 20260505033113 | 64 | 232 | 2.0 | 5.0 | 0.00 | 0.00 | 0.00 | 44 | 1009.3 |
| 20260505032521 | 65 | 230 | 3.0 | 5.0 | 0.00 | 0.00 | 0.00 | 43 | 1009.2 |
| 20260505032012 | 65 | 229 | 3.0 | 5.0 | 0.00 | 0.00 | 0.00 | 43 | 1009.2 |
| 20260505031630 | 65 | 227 | 3.0 | 5.0 | 0.00 | 0.00 | 0.00 | 43 | 1009.1 |
| 20260505031040 | 66 | 247 | 2.0 | 4.0 | 0.00 | 0.00 | 0.00 | 40 | 1009.0 |
| 20260505030524 | 66 | 228 | 2.0 | 5.0 | 0.00 | 0.00 | 0.00 | 42 | 1008.8 |
| 20260505030055 | 67 | 232 | 3.0 | 5.0 | 0.00 | 0.00 | 0.00 | 41 | 1008.8 |
| 20260505025533 | 66 | 257 | 2.0 | 5.0 | 0.00 | 0.00 | 0.00 | 43 | 1008.8 |
| 20260505025037 | 66 | 240 | 2.0 | 5.0 | 0.00 | 0.00 | 0.00 | 42 | 1008.7 |
| 20260505024607 | 66 | 228 | 2.0 | 5.0 | 0.00 | 0.00 | 0.00 | 42 | 1008.5 |
| 20260505024030 | 67 | 225 | 1.0 | 5.0 | 0.00 | 0.00 | 0.00 | 41 | 1008.5 |
| 20260505023515 | 67 | 237 | 2.0 | 5.0 | 0.00 | 0.00 | 0.00 | 42 | 1008.6 |
| 20260505023216 | 68 | 238 | 2.0 | 5.0 | 0.00 | 0.00 | 0.00 | 40 | 1008.6 |
| 20260505022533 | 69 | 236 | 3.0 | 5.0 | 0.00 | 0.00 | 0.00 | 39 | 1008.7 |
| 20260505022020 | 69 | 224 | 3.0 | 5.0 | 0.00 | 0.00 | 0.00 | 38 | 1008.8 |
| 20260505021602 | 69 | 217 | 2.0 | 5.0 | 0.00 | 0.00 | 0.00 | 37 | 1008.7 |
| 20260505021012 | 69 | 231 | 2.0 | 4.0 | 0.00 | 0.00 | 0.00 | 37 | 1008.7 |
| 20260505020515 | 70 | 224 | 2.0 | 4.0 | 0.00 | 0.00 | 0.00 | 37 | 1008.5 |
| 20260505020223 | 70 | 217 | 2.0 | 4.0 | 0.00 | 0.00 | 0.00 | 36 | 1008.5 |
| 20260505015533 | 71 | 215 | 2.0 | 3.0 | 0.00 | 0.00 | 0.00 | 33 | 1008.3 |
| 20260505015024 | 71 | 231 | 1.0 | 3.0 | 0.00 | 0.00 | 0.00 | 34 | 1008.3 |
| 20260505014549 | 71 | 236 | 1.0 | 3.0 | 0.00 | 0.00 | 0.00 | 36 | 1008.5 |
| 20260505014031 | 71 | 262 | 1.0 | 3.0 | 0.00 | 0.00 | 0.00 | 36 | 1008.5 |
| 20260505013537 | 71 | 239 | 1.0 | 2.0 | 0.00 | 0.00 | 0.00 | 35 | 1008.5 |
| 20260505013130 | 71 | 240 | 1.0 | 2.0 | 0.00 | 0.00 | 0.00 | 38 | 1008.4 |
| 20260505012517 | 72 | 242 | 1.0 | 3.0 | 0.00 | 0.00 | 0.00 | 37 | 1008.6 |
| 20260505012016 | 72 | 248 | 0.0 | 3.0 | 0.00 | 0.00 | 0.00 | 37 | 1008.7 |
| 20260505011626 | 73 | 253 | 1.0 | 3.0 | 0.00 | 0.00 | 0.00 | 35 | 1008.6 |
| 20260505011032 | 73 | 241 | 0.0 | 3.0 | 0.00 | 0.00 | 0.00 | 35 | 1008.7 |
| 20260505010529 | 73 | 281 | 1.0 | 2.0 | 0.00 | 0.00 | 0.00 | 33 | 1008.7 |
| 20260505010112 | 73 | 323 | 0.0 | 3.0 | 0.00 | 0.00 | 0.00 | 32 | 1008.6 |
| 20260505005520 | 74 | 234 | 1.0 | 3.0 | 0.00 | 0.00 | 0.00 | 33 | 1008.5 |
| 20260505005037 | 74 | 242 | 1.0 | 3.0 | 0.00 | 0.00 | 0.00 | 32 | 1008.5 |
| 20260505004619 | 75 | 279 | 1.0 | 4.0 | 0.00 | 0.00 | 0.00 | 30 | 1008.6 |
| 20260505004014 | 75 | 211 | 0.0 | 4.0 | 0.00 | 0.00 | 0.00 | 32 | 1008.5 |
| 20260505003538 | 76 | 219 | 1.0 | 2.0 | 0.00 | 0.00 | 0.00 | 28 | 1008.6 |
| 20260505003127 | 76 | 219 | 0.0 | 2.0 | 0.00 | 0.00 | 0.00 | 27 | 1008.6 |